Weather History for Cody, WY

Change the Weather History Date:

Thursday, March 28, 2013

  Actual Average Record
Temperature  
Mean Temperature 46 °F -  
Max Temperature 60 °F 49 °F 79 °F (1953)
Min Temperature 32 °F 28 °F 0 °F (1944)
Degree Days  
Heating Degree Days 19    
Moisture  
Dew Point 22 °F    
Average Humidity 41    
Maximum Humidity 65    
Minimum Humidity 20    
Precipitation  
Precipitation 0.00 in - - ()
Sea Level Pressure  
Sea Level Pressure 30.03 in    
Wind  
Wind Speed 6 mph (WSW)    
Max Wind Speed 14 mph    
Max Gust Speed 20 mph    
Visibility 10 miles    
Events      
Averages and records for this station are not official NWS values.
T = Trace of Precipitation, MM = Missing Value Source: NWS Daily Summary

Daily Weather History Graph

Daily Weather History Graph

Search for Another Location

Airport:

Trip Planner

Search our weather history database for the weather conditions in past years. The results will help you decide how hot, cold, wet, or windy it might be!

Date:

Astronomy

Mar. 28, 2013 Rise Set
Actual Time 7:03 AM MDT 7:38 PM MDT
Civil Twilight 6:34 AM MDT 8:08 PM MDT
Nautical Twilight 6:00 AM MDT 8:42 PM MDT
Astronomical Twilight 5:24 AM MDT 9:18 PM MDT
Moon 9:40 PM MDT (3/28) 7:29 AM MDT (3/28)
Length of Visible Light 13h 33m
Length of Day
12h 35m
Full, 98% of the Moon is Illuminated
Mar 28
Full
Apr 2
Last Quarter
Apr 10
New
Apr 18
First Quarter
Apr 25
Full

Hourly Weather History & Observations

Time (MDT) Temp. Windchill Dew Point Humidity Pressure Visibility Wind Dir Wind Speed Gust Speed Precip Events Conditions
12:15 AM 42.8 °F 41.1 °F 26.6 °F 53% 30.01 in 10.0 mi WNW 3.5 mph - N/A   Clear
12:35 AM 42.8 °F 41.1 °F 24.8 °F 49% 30.02 in 10.0 mi WSW 3.5 mph - N/A   Clear
12:55 AM 41.0 °F 37.1 °F 23.0 °F 49% 30.02 in 10.0 mi WSW 5.8 mph - N/A   Clear
1:15 AM 42.8 °F 38.0 °F 26.6 °F 53% 30.02 in 10.0 mi WSW 8.1 mph - N/A   Clear
1:35 AM 39.2 °F 35.9 °F 23.0 °F 52% 30.02 in 10.0 mi WNW 4.6 mph - N/A   Clear
1:55 AM 41.0 °F 35.8 °F 24.8 °F 53% 30.03 in 10.0 mi West 8.1 mph - N/A   Clear
2:15 AM 39.2 °F - 24.8 °F 56% 30.03 in 10.0 mi Calm Calm - N/A   Clear
2:35 AM 37.4 °F - 21.2 °F 52% 30.03 in 10.0 mi Calm Calm - N/A   Clear
2:55 AM 35.6 °F - 21.2 °F 56% 30.03 in 10.0 mi Calm Calm - N/A   Clear
3:15 AM 37.4 °F 33.8 °F 23.0 °F 56% 30.03 in 10.0 mi SW 4.6 mph - N/A   Clear
3:35 AM 35.6 °F 31.7 °F 24.8 °F 65% 30.03 in 10.0 mi South 4.6 mph - N/A   Clear
3:55 AM 37.4 °F 34.9 °F 23.0 °F 56% 30.03 in 10.0 mi SSW 3.5 mph - N/A   Clear
4:15 AM 37.4 °F 32.8 °F 24.8 °F 60% 30.03 in 10.0 mi SW 5.8 mph - N/A   Clear
4:36 AM 35.6 °F 29.9 °F 24.8 °F 65% 30.03 in 10.0 mi SW 6.9 mph - N/A   Clear
4:55 AM 33.8 °F - 21.2 °F 60% 30.03 in 10.0 mi Calm Calm - N/A   Clear
5:15 AM 37.4 °F - 24.8 °F 60% 30.03 in 10.0 mi Calm Calm - N/A   Clear
5:35 AM 32.0 °F - 19.4 °F 60% 30.04 in 10.0 mi Calm Calm - N/A   Clear
5:55 AM 35.6 °F 30.7 °F 23.0 °F 60% 30.04 in 10.0 mi SW 5.8 mph - N/A   Clear
6:15 AM 35.6 °F - 23.0 °F 60% 30.04 in 10.0 mi Calm Calm - N/A   Clear
6:35 AM 33.8 °F 27.0 °F 23.0 °F 65% 30.05 in 10.0 mi WSW 8.1 mph - N/A   Clear
6:55 AM 35.6 °F 28.0 °F 24.8 °F 65% 30.05 in 10.0 mi SW 10.4 mph - N/A   Clear
7:15 AM 35.6 °F 30.7 °F 24.8 °F 65% 30.05 in 10.0 mi West 5.8 mph - N/A   Clear
7:35 AM 37.4 °F 32.1 °F 24.8 °F 60% 30.06 in 10.0 mi WSW 6.9 mph - N/A   Clear
7:55 AM 39.2 °F 32.5 °F 24.8 °F 56% 30.07 in 10.0 mi SW 10.4 mph - N/A   Clear
8:15 AM 41.0 °F 34.3 °F 24.8 °F 53% 30.07 in 10.0 mi SW 11.5 mph - N/A   Clear
8:35 AM 42.8 °F 38.6 °F 24.8 °F 49% 30.07 in 10.0 mi SW 6.9 mph - N/A   Clear
8:55 AM 44.6 °F 41.4 °F 26.6 °F 49% 30.07 in 10.0 mi WSW 5.8 mph - N/A   Clear
9:15 AM 44.6 °F 40.2 °F 26.6 °F 49% 30.07 in 10.0 mi SW 8.1 mph - N/A   Clear
9:35 AM 46.4 °F 42.4 °F 26.6 °F 46% 30.07 in 10.0 mi WSW 8.1 mph - N/A   Clear
9:55 AM 48.2 °F - 26.6 °F 43% 30.07 in 10.0 mi SW 10.4 mph - N/A   Clear
10:15 AM 51.8 °F - 24.8 °F 35% 30.07 in 10.0 mi West 8.1 mph - N/A   Clear
10:35 AM 51.8 °F - 24.8 °F 35% 30.07 in 10.0 mi NW 4.6 mph - N/A   Clear
10:55 AM 51.8 °F - 24.8 °F 35% 30.07 in 10.0 mi Calm Calm - N/A   Clear
11:15 AM 53.6 °F - 24.8 °F 33% 30.07 in 10.0 mi North 3.5 mph - N/A   Clear
11:35 AM 53.6 °F - 24.8 °F 33% 30.06 in 10.0 mi NNW 4.6 mph 16.1 mph N/A   Clear
11:55 AM 55.4 °F - 24.8 °F 31% 30.06 in 10.0 mi North 4.6 mph - N/A   Clear
12:15 PM 55.4 °F - 24.8 °F 31% 30.05 in 10.0 mi NNW 6.9 mph - N/A   Clear
12:35 PM 55.4 °F - 21.2 °F 26% 30.04 in 10.0 mi SW 12.7 mph 17.3 mph N/A   Partly Cloudy
12:55 PM 57.2 °F - 21.2 °F 25% 30.04 in 10.0 mi SW 12.7 mph 18.4 mph N/A   Mostly Cloudy
1:15 PM 59.0 °F - 21.2 °F 23% 30.03 in 10.0 mi SW 12.7 mph 19.6 mph N/A   Overcast
1:35 PM 57.2 °F - 21.2 °F 25% 30.03 in 10.0 mi WSW 11.5 mph 17.3 mph N/A   Overcast
1:55 PM 59.0 °F - 21.2 °F 23% 30.03 in 10.0 mi West 12.7 mph 17.3 mph N/A   Overcast
2:15 PM 59.0 °F - 21.2 °F 23% 30.02 in 10.0 mi SW 9.2 mph - N/A   Overcast
2:35 PM 60.8 °F - 21.2 °F 22% 30.02 in 10.0 mi West 11.5 mph 16.1 mph N/A   Mostly Cloudy
2:55 PM 59.0 °F - 21.2 °F 23% 30.01 in 10.0 mi WNW 8.1 mph - N/A   Mostly Cloudy
3:15 PM 60.8 °F - 19.4 °F 20% 30.01 in 10.0 mi WSW 11.5 mph 17.3 mph N/A   Scattered Clouds
3:35 PM 60.8 °F - 19.4 °F 20% 30.00 in 10.0 mi SW 8.1 mph - N/A   Mostly Cloudy
3:55 PM 60.8 °F - 19.4 °F 20% 29.99 in 10.0 mi West 13.8 mph - N/A   Scattered Clouds
4:15 PM 60.8 °F - 19.4 °F 20% 29.99 in 10.0 mi West 9.2 mph 16.1 mph N/A   Partly Cloudy
4:35 PM 60.8 °F - 19.4 °F 20% 29.99 in 10.0 mi WSW 8.1 mph - N/A   Partly Cloudy
4:55 PM 60.8 °F - 19.4 °F 20% 30.00 in 10.0 mi Calm Calm - N/A   Mostly Cloudy
5:15 PM 59.0 °F - 21.2 °F 23% 30.00 in 10.0 mi North 5.8 mph - N/A   Mostly Cloudy
5:35 PM 60.8 °F - 21.2 °F 22% 29.99 in 10.0 mi North 5.8 mph - N/A   Partly Cloudy
5:55 PM 59.0 °F - 19.4 °F 22% 30.00 in 10.0 mi NE 6.9 mph - N/A   Scattered Clouds
6:35 PM 57.2 °F - 19.4 °F 23% 30.00 in 10.0 mi ENE 9.2 mph - N/A   Partly Cloudy
6:55 PM 55.4 °F - 21.2 °F 26% 30.00 in 10.0 mi East 10.4 mph - N/A   Clear
7:15 PM 55.4 °F - 19.4 °F 25% 30.00 in 10.0 mi East 12.7 mph 18.4 mph N/A   Clear
7:55 PM 53.6 °F - 19.4 °F 26% 30.01 in 10.0 mi ESE 13.8 mph - N/A   Clear
9:15 PM 48.2 °F - 19.4 °F 32% 30.04 in 10.0 mi SW 4.6 mph - N/A   Clear
9:35 PM 48.2 °F - 19.4 °F 32% 30.04 in 10.0 mi Calm Calm - N/A   Clear
9:55 PM 44.6 °F - 19.4 °F 37% 30.04 in 10.0 mi Calm Calm - N/A   Clear
10:35 PM 42.8 °F 40.1 °F 17.6 °F 36% 30.04 in 10.0 mi South 4.6 mph - N/A   Clear
10:55 PM 42.8 °F 39.3 °F 19.4 °F 39% 30.04 in 10.0 mi South 5.8 mph - N/A   Clear
11:15 PM 42.8 °F 38.0 °F 19.4 °F 39% 30.04 in 10.0 mi South 8.1 mph - N/A   Clear
11:35 PM 42.8 °F 40.1 °F 19.4 °F 39% 30.04 in 10.0 mi SSE 4.6 mph - N/A   Clear
11:55 PM 42.8 °F 37.0 °F 19.4 °F 39% 30.04 in 10.0 mi South 10.4 mph - N/A   Clear